SCP
0 0 -0 0 0 -0 0 0 0 0 0 0 -0 0 0 -0 -0 -0 -0 -0 0 0 0 0 -0 -0 -0 -0 0 0 0 -0 -0 -0 -0 -0 -0 -0 -0 -0 -0 -0 -0 -0 -0 -0 -0 -0 -0
0 0 0 0 0 0 -0 0 -0 0 0 -0 -0 -0 0 -0 -0 -0 0 0 0 0 0 0 -0 -0 0 -0 -0 -0 0 0 -0 -0 -0 -0 -0 -0 -0 -0 -0 -0 -0 -0 -0 -0 0 -0 0
0 0 0 0 0 0 -0 0 -0 0 0 0 0 0 -0 -0 -0 -0 0 0 0 0 0 0 -0 -0 -0 0 -0 0 0 0 -0 -0 -0 -0 -0 -0 -0 -0 -0 -0 -0 -0 0 0 -0 -0 -0
0 0 0 0 0 0 0 -0 -0 -0 0 -0 0 -0 0 0 0 -0 0 0 0 0 0 0 -0 -0 0 0 0 0 -0 0 0 -0 -0 -0 -0 -0 -0 -0 -0 -0 -0 0 0 0 -0 -0 -0
0 0 0 0 0 0 0 0 -0 0 0 0 0 0 0 0 0 0 0 0 0 0 0 0 -0 -0 0 0 0 -0 0 0 0 0 0 0 -0 -0 -0 -0 -0 0 0 -0 -0 -0 -0 -0 -0
0 0 0 0 0 0 0 0 0 0 0 0 0 0 0 0 -0 0 0 0 0 0 0 0 -0 -0 -0 0 0 0 -0 0 0 0 0 0 -0 -0 -0 -0 -0 -0 -0 -0 -0 -0 -0 -0 -0
0 0 0 0 0 0 0 0 0 0 0 0 -0 0 0 0 0 0 0 0 0 0 0 0 0 0 -0 -0 -0 -0 -0 0 0 0 0 0 0 -0 -0 -0 -0 -0 -0 -0 -0 -0 -0 -0 -0
0 0 0 0 0 0 0 0 0 0 0 0 0 0 -0 0 0 0 0 0 0 0 0 0 0 0 0 0 -0 -0 -0 0 0 0 0 0 0 0 0 0 -0 -0 -0 -0 -0 -0 -0 -0 -0
0 0 0 0 0 0 0 0 0 0 0 0 0 0 0 0 -0 0 0 0 0 -0 -0 0 0 0 0 0 -0 -0 -0 0 0 0 0 0 0 0 0 -0 -0 -0 -0 -0 -0 0 0 0 0
0 0 0 0 0 0 0 0 0 0 0 0 0 0 -0 -0 -0 -0 -0 0 0 0 -0 -0 -0 0 0 0 0 0 0 0 0 0 -0 0 -0 -0 -0 -0 -0 -0 -0 0 0 0 0 0 0
0 0 0 0 0 0 0 0 0 0 0 0 0 0 0 0 0 0 0 0 -0 0 0 -0 -0 -0 -0 0 0 0 0 0 0 0 0 -0 -0 -0 -0 -0 0 0 0 0 0 0 0 0 0
0 0 0 0 0 0 0 0 0 0 0 0 0 -0 0 0 0 0 -0 -0 -0 -0 -0 -0 -0 -0 -0 -0 -0 -0 -0 0 0 0 -0 -0 -0 -0 -0 0 0 0 0 0 0 0 0 0 0
0 0 0 0 0 0 0 0 0 0 0 0 0 0 0 0 0 0 0 0 0 -0 -0 -0 -0 -0 -0 -0 -0 -0 -0 -0 0 0 -0 -0 -0 -0 0 0 0 0 0 0 0 0 0 0 0
0 0 0 0 0 0 0 0 0 0 0 0 0 0 0 0 0 0 0 0 0 -0 -0 -0 -0 -0 -0 -0 -0 -0 -0 -0 -0 -0 -0 -0 -0 0 0 0 0 0 0 0 0 0 0 0 0
0 0 0 0 0 0 0 0 0 0 0 0 0 0 0 0 0 0 0 0 0 0 -0 -0 -0 -0 -0 -0 -0 -0 -0 -0 -0 -0 -0 -0 -0 0 0 0 0 0 0 0 0 0 0 0 0
0 0 0 0 0 0 0 -0 0 0 0 0 0 0 0 0 0 0 0 0 0 0 0 0 0 -0 -0 -0 -0 0 -0 0 0 0 0 0 -0 0 0 0 0 0 0 0 0 0 0 0 0
0 0 0 0 0 0 0 -0 0 0 0 0 0 0 0 0 0 0 0 0 0 0 0 0 0 0 0 0 0 0 0 0 0 0 0 0 0 0 0 0 0 0 0 0 0 0 0 0 0
0 0 0 0 0 0 0 0 0 0 0 0 0 0 0 0 0 0 0 0 0 0 0 0 0 0 0 0 0 0 0 0 0 0 0 0 0 0 0 0 0 0 0 0 0 0 0 0 0
0 0 0 0 0 0 0 0 0 0 0 0 0 0 0 0 0 0 0 0 0 0 0 0 0 0 0 0 0 0 0 0 0 0 0 0 0 0 0 0 0 0 0 0 0 0 0 0 0
0 0 0 0 0 0 0 0 0 0 -0 -0 0 0 -0 0 -0 -0 0 0 0 0 0 0 0 0 0 0 0 0 0 0 0 0 0 0 0 0 0 0 0 0 0 0 0 0 0 0 0
0 0 0 0 0 0 0 0 -0 0 0 0 0 0 -0 -0 0 -0 0 0 0 0 0 0 0 0 0 0 0 0 0 0 0 0 0 0 0 0 0 0 0 0 0 0 0 0 0 0 0
0 0 0 0 0 0 0 0 0 0 0 0 0 0 0 0 0 0 0 0 0 0 0 0 0 0 0 0 0 0 0 0 0 0 0 0 0 0 0 0 0 0 0 0 0 0 0 0 0
0 0 0 0 0 0 0 0 -0 0 0 0 0 0 0 0 0 0 0 0 0 0 0 0 0 0 0 0 0 0 0 0 0 0 0 0 0 0 0 0 0 0 0 0 0 0 0 0 0
0 0 0 0 0 0 0 0 0 0 0 0 0 0 0 0 0 0 0 0 0 0 0 0 0 0 0 0 0 0 0 0 0 0 0 0 0 0 0 0 0 0 0 0 0 0 0 0 0
0 0 0 0 0 0 0 0 0 0 0 0 0 0 0 0 0 0 0 0 0 0 0 0 0 0 0 0 0 0 0 0 0 0 0 0 0 0 0 0 0 0 0 0 0 0 0 0 0
0 0 0 0 0 0 0 0 0 0 -0 0 0 0 0 0 0 0 0 0 0 0 0 0 0 0 0 0 0 0 0 0 0 0 0 0 0 0 0 0 0 0 0 0 0 0 0 0 0
0 0 0 0 0 0 0 0 0 0 0 0 0 0 0 0 0 0 0 0 0 0 0 0 0 0 0 0 0 0 0 0 0 0 0 0 0 0 0 0 0 0 0 0 0 0 0 0 0
0 0 0 0 0 0 0 0 0 0 0 0 0 0 0 0 0 0 0 0 0 0 0 0 0 0 0 0 0 0 0 0 0 0 0 0 0 0 0 0 0 0 0 0 0 0 0 0 0
0 0 0 0 0 0 0 0 0 0 0 0 0 0 0 0 0 0 0 0 0 0 0 0 0 0 0 0 0 0 0 0 0 0 0 0 0 0 0 0 0 0 0 0 0 0 0 0 0
0 0 0 0 0 0 0 0 0 -0 0 0 0 0 0 0 0 0 0 0 0 0 0 0 0 0 0 0 0 0 0 0 0 0 0 0 0 0 0 0 0 0 0 0 0 0 0 0 0
Wind_Speed_500mb
19 25 29 10 7 9 2 2 3 7 7 10 21 30 21 11 4 5 31 28 18 22 22 24 23 28 29 28 29 30 30 27 27 25 21 18 16 17 19 21 28 30 32 32 35 37 34 31 31
20 24 16 3 8 5 8 0 9 6 25 40 29 19 16 5 9 29 40 28 22 24 26 26 25 28 34 31 29 29 27 24 21 24 22 17 15 16 20 26 32 31 33 33 35 35 31 30 30
18 21 9 7 6 4 8 7 11 16 19 12 13 22 9 14 31 39 30 31 21 27 27 25 25 28 36 35 32 29 29 24 21 23 24 19 20 22 25 32 31 33 34 34 33 32 28 30 33
18 5 4 7 5 6 14 15 19 20 18 10 35 19 18 11 25 31 29 19 26 31 28 28 27 27 35 38 37 34 28 27 26 24 27 24 21 20 31 32 31 33 32 32 32 31 32 31 31
12 4 6 3 6 4 6 28 31 13 15 22 10 8 7 26 19 28 29 21 29 33 32 31 26 25 30 34 34 28 30 30 24 19 24 27 23 26 26 30 30 31 33 33 32 31 28 23 25
7 3 5 1 5 3 8 31 26 15 22 24 22 17 7 27 31 35 28 22 25 31 33 33 28 27 27 30 31 31 31 31 25 20 22 22 29 23 20 27 26 27 29 30 29 28 26 23 21
2 5 6 7 8 5 11 27 29 25 22 12 43 10 22 49 37 39 31 23 28 31 32 33 30 29 28 24 25 28 30 28 25 21 21 19 24 24 20 26 24 25 25 25 26 26 25 22 20
9 5 3 2 3 6 7 10 25 31 7 40 26 14 22 58 47 40 33 26 29 33 33 32 30 26 26 28 26 26 26 24 24 24 23 19 20 13 14 23 23 21 21 22 23 24 24 22 18
10 4 6 6 5 11 3 7 10 15 32 15 17 25 28 62 52 46 40 35 31 34 35 35 31 29 26 24 26 25 24 24 24 22 20 17 16 17 19 24 23 21 19 20 20 20 19 17 16
5 5 9 13 11 4 16 3 18 11 18 9 17 21 56 68 60 56 52 47 41 38 38 35 35 32 31 27 27 27 25 24 23 22 20 21 20 18 20 23 22 20 17 17 17 15 13 11 11
7 8 7 9 15 7 12 4 7 26 4 21 36 44 71 71 67 58 51 46 43 37 37 36 34 34 33 32 29 27 25 24 23 22 22 21 20 21 21 21 20 18 16 14 13 11 11 10 9
9 15 13 8 11 4 7 6 5 21 6 18 31 41 65 72 71 66 58 52 47 46 43 40 39 35 33 33 31 28 26 25 22 20 19 20 21 20 20 21 20 18 15 12 10 9 9 8 7
17 12 19 38 21 17 10 14 12 20 10 18 38 50 58 66 67 64 59 52 49 48 46 46 43 41 38 37 35 32 29 25 23 21 19 18 17 17 18 18 18 16 15 14 13 11 10 9 10
18 21 28 40 29 15 10 12 7 16 24 23 46 53 57 58 59 65 65 63 59 51 49 47 46 42 42 39 38 34 33 29 28 25 22 19 18 17 17 17 17 17 16 15 14 14 13 13 13
28 14 27 22 24 9 5 12 13 28 25 42 49 52 56 61 65 66 62 68 66 60 53 53 49 43 44 41 40 39 35 33 30 28 27 25 23 22 22 20 20 19 18 18 18 18 18 18 18
17 3 22 10 15 10 19 14 26 37 29 46 55 58 59 59 61 67 70 65 65 62 64 60 57 53 48 48 45 42 40 37 33 32 32 31 28 27 25 24 22 22 23 22 22 22 21 20 20
14 15 30 9 28 9 13 12 23 38 43 43 55 57 58 57 59 59 70 71 68 64 63 64 66 64 58 52 50 46 43 44 41 38 36 34 33 33 30 29 27 27 27 28 25 23 23 22 21
22 34 15 22 12 12 13 25 15 12 42 60 54 57 61 62 63 57 61 67 72 70 66 64 63 68 66 61 56 54 51 51 50 48 44 42 41 38 37 36 35 34 31 29 28 27 25 24 24
23 20 16 12 15 16 24 27 26 42 21 31 44 65 69 71 55 54 56 60 65 69 69 68 66 66 69 72 70 67 64 59 57 55 50 48 47 46 45 44 42 41 39 35 29 31 30 31 33
30 27 22 6 11 16 14 32 19 27 41 47 54 49 71 72 71 65 61 64 67 66 66 65 67 68 70 73 72 72 67 65 60 57 57 55 53 51 52 50 48 46 45 43 40 42 37 34 25
24 37 27 19 10 6 1 18 12 18 54 61 67 68 65 74 69 64 72 73 70 74 71 67 66 67 68 69 70 75 74 72 70 68 64 61 59 55 55 53 51 50 50 49 47 47 41 37 33
42 31 29 20 16 9 5 11 10 15 32 30 67 76 82 80 75 69 65 77 78 73 68 70 67 67 65 67 70 74 79 80 75 73 67 64 62 60 58 56 55 53 55 53 49 50 45 44 39
31 22 12 13 13 12 11 7 13 8 15 19 46 71 88 84 84 80 71 64 80 72 68 67 69 68 67 70 70 70 75 77 76 75 72 70 66 64 62 62 60 59 60 58 51 55 53 51 51
17 18 11 7 6 11 21 23 10 11 16 13 27 57 71 86 79 73 68 65 72 79 78 72 69 68 69 71 71 71 71 73 76 74 74 73 66 65 67 66 64 61 63 64 58 54 57 56 58
27 30 6 6 7 12 12 17 27 14 17 15 24 43 41 49 66 75 70 66 66 68 86 80 77 74 68 70 72 72 73 75 75 72 73 74 69 68 69 68 67 68 67 65 66 64 62 61 61
53 40 15 25 15 8 11 19 13 33 59 36 14 15 24 28 37 50 58 59 66 67 69 74 81 78 74 69 70 73 76 78 76 74 73 71 71 69 66 65 66 67 70 70 71 74 72 66 66
37 38 13 14 4 7 10 12 20 18 19 33 36 27 28 25 29 30 32 35 48 60 58 65 73 76 76 74 72 74 75 80 81 76 74 74 72 71 68 66 64 65 68 73 74 76 78 79 74
37 35 15 3 13 11 9 12 16 20 25 19 23 42 38 27 27 30 38 37 37 39 49 58 61 65 68 71 72 72 72 74 75 76 78 78 75 72 68 67 66 62 60 61 65 73 78 81 85
11 28 10 12 10 11 5 15 17 25 34 33 23 42 40 39 34 28 29 34 34 33 36 43 52 56 59 62 66 69 69 71 74 77 80 80 76 73 68 65 61 58 60 63 63 67 70 74 76
12 34 12 22 13 5 3 12 1 20 22 38 38 43 40 32 29 27 25 27 29 31 34 37 41 46 50 55 59 62 65 67 71 74 77 75 73 67 62 62 66 60 64 65 68 69 66 64 63
Wind_Direction_500mb
322 322 325 337 44 59 289 302 155 107 64 68 85 98 117 85 59 173 141 166 187 184 167 158 152 152 147 139 135 132 128 127 121 118 117 113 97 88 96 100 92 91 93 95 96 98 93 84 83
327 325 332 37 82 56 262 245 136 158 128 109 87 87 54 84 110 139 151 176 192 178 171 167 161 159 152 144 142 138 135 130 126 127 130 115 103 100 106 104 97 95 95 97 97 98 94 93 97
322 323 339 85 113 176 177 181 150 125 127 108 103 72 78 111 125 145 167 168 183 173 167 165 163 160 160 152 141 140 139 135 124 127 130 121 105 99 109 102 98 95 96 99 102 103 101 93 90
335 335 32 82 253 237 171 187 149 134 100 90 113 77 99 125 147 174 161 169 173 164 159 157 155 156 164 166 162 154 147 146 134 119 137 131 115 118 112 103 99 100 103 106 106 107 102 93 88
326 10 50 18 289 349 82 167 152 130 109 130 119 127 97 163 179 173 158 166 173 156 152 151 147 146 156 167 177 177 151 156 150 136 134 136 128 119 122 111 107 106 105 105 107 107 105 100 89
319 55 75 227 278 85 163 169 142 128 127 128 109 106 136 170 179 174 170 170 173 159 153 150 148 146 145 153 164 159 153 156 161 155 147 149 124 132 124 116 110 104 100 102 107 112 115 112 100
348 79 198 167 253 194 196 164 149 143 138 148 142 95 153 166 179 172 174 171 175 168 160 155 154 153 146 146 146 149 152 160 163 164 161 154 136 140 133 128 117 109 109 113 116 120 119 113 98
302 106 218 46 357 256 161 122 159 135 97 142 144 153 180 172 174 174 178 176 177 176 170 163 158 159 155 153 153 152 152 154 157 167 171 159 155 161 129 136 127 125 124 125 126 128 128 124 115
279 67 190 164 59 280 274 124 138 138 138 160 183 171 185 169 177 180 182 182 182 184 180 174 167 163 161 159 155 155 153 153 154 160 165 166 166 168 154 147 144 141 138 137 139 140 140 134 127
269 153 237 178 155 244 311 153 142 136 131 111 150 169 163 170 185 187 188 188 187 190 185 185 178 173 169 169 167 164 163 162 163 165 166 166 165 161 161 158 153 151 147 147 149 147 147 146 136
285 213 283 231 199 327 311 177 156 149 201 193 172 160 169 177 185 195 196 197 192 188 191 190 190 185 181 178 176 174 174 173 172 170 170 168 165 163 162 169 166 165 163 160 157 160 165 164 158
280 272 269 258 220 238 313 317 183 183 206 214 195 185 176 184 191 197 203 200 196 197 196 196 196 198 194 193 190 187 184 182 181 178 176 176 173 171 173 175 178 178 178 175 173 175 179 183 181
270 273 276 266 248 236 275 270 232 227 192 194 187 180 185 191 197 201 208 208 205 205 201 204 204 206 203 201 201 198 195 194 193 191 189 187 179 180 182 185 189 191 194 194 197 198 200 205 209
224 257 253 253 256 244 191 252 211 241 202 180 183 188 192 197 203 204 205 209 211 214 213 210 211 209 210 208 212 212 207 202 204 203 202 201 196 198 200 199 199 203 207 209 213 218 216 215 217
217 319 275 235 235 242 231 278 230 219 202 191 194 199 201 205 206 212 212 212 213 215 219 217 217 218 216 216 219 218 222 214 216 211 213 212 214 212 210 216 215 214 217 220 223 225 228 225 223
141 123 266 241 186 227 161 258 237 222 203 200 200 206 208 210 216 217 218 219 219 217 216 221 223 223 225 223 221 224 226 228 225 221 222 223 224 228 228 229 231 232 233 232 231 234 238 237 237
152 210 223 239 203 156 180 263 246 232 208 207 207 209 215 218 220 222 223 222 224 224 219 220 225 227 227 228 228 228 229 233 233 230 229 233 235 237 241 242 242 245 246 246 241 243 250 245 256
167 200 213 204 210 207 206 242 276 269 217 222 214 216 218 223 226 226 224 224 226 229 229 226 227 229 232 232 231 233 232 232 234 235 235 235 238 242 245 247 248 250 255 257 245 254 260 254 255
166 179 183 207 200 177 224 242 232 252 239 238 235 229 225 227 230 230 229 226 226 227 229 226 226 231 231 232 231 230 233 233 233 236 238 239 240 242 245 248 248 250 257 261 263 258 252 252 252
183 175 212 244 213 181 229 246 237 244 256 255 249 242 229 232 232 230 230 227 225 226 227 229 232 233 234 235 237 239 240 239 242 242 242 242 243 244 246 248 249 251 253 252 249 249 248 254 238
200 188 188 200 161 183 121 273 225 236 246 249 249 247 236 230 230 229 229 229 228 226 227 230 233 235 235 237 239 239 242 244 243 242 242 243 245 245 246 249 251 253 252 252 251 246 247 245 242
214 204 197 186 160 200 179 276 256 227 239 233 236 238 237 232 232 236 234 230 228 231 234 235 237 239 239 238 242 243 243 245 247 249 249 248 247 250 252 252 251 252 252 250 249 242 248 244 242
213 145 159 180 180 133 177 264 268 213 257 236 235 236 239 236 233 234 234 236 232 233 235 238 240 242 244 243 244 245 245 249 253 253 255 255 254 254 255 255 253 252 252 250 248 243 244 243 246
148 111 71 95 66 249 174 200 252 210 210 242 239 243 240 238 236 235 238 240 234 233 235 237 239 243 245 245 245 247 247 249 251 253 253 255 256 255 255 255 255 254 254 251 250 248 244 245 248
173 163 186 146 187 230 170 191 234 237 244 228 250 241 238 237 236 233 232 233 232 233 236 238 239 242 246 247 248 249 251 251 254 255 254 256 257 256 256 255 254 255 255 255 252 250 248 247 248
187 185 171 194 192 200 123 223 244 218 244 234 232 212 196 208 220 229 237 240 238 238 234 238 241 243 246 249 252 253 253 254 256 256 255 257 259 261 264 263 262 261 260 260 259 255 252 249 249
194 208 175 98 41 87 212 279 306 233 247 225 223 196 201 198 206 207 219 231 234 232 235 241 243 244 247 251 251 253 254 255 256 258 260 262 264 266 268 269 267 265 264 261 260 259 257 252 248
185 177 177 19 144 215 247 281 228 204 201 205 205 205 208 209 213 219 222 225 226 229 234 238 241 244 248 251 251 254 256 259 262 265 265 267 269 270 272 272 272 269 266 265 261 261 260 258 252
151 187 201 126 165 167 177 249 208 204 196 196 193 198 199 202 205 212 213 216 223 230 234 234 237 240 243 246 247 249 252 256 259 262 266 269 272 274 273 274 276 271 267 266 265 265 267 270 268
182 182 186 198 212 214 209 272 229 249 168 164 185 185 181 191 203 200 198 204 216 225 230 233 236 240 245 247 248 250 251 251 253 255 260 263 266 269 272 270 265 265 268 266 267 266 265 273 275
Wind_Speed_850mb
19 25 29 10 7 9 2 2 3 7 7 10 21 30 21 11 4 5 31 28 18 22 22 24 23 28 29 28 29 30 30 27 27 25 21 18 16 17 19 21 28 30 32 32 35 37 34 31 31
20 24 16 3 8 5 8 0 9 6 25 40 29 19 16 5 9 29 40 28 22 24 26 26 25 28 34 31 29 29 27 24 21 24 22 17 15 16 20 26 32 31 33 33 35 35 31 30 30
18 21 9 7 6 4 8 7 11 16 19 12 13 22 9 14 31 39 30 31 21 27 27 25 25 28 36 35 32 29 29 24 21 23 24 19 20 22 25 32 31 33 34 34 33 32 28 30 33
18 5 4 7 5 6 14 15 19 20 18 10 35 19 18 11 25 31 29 19 26 31 28 28 27 27 35 38 37 34 28 27 26 24 27 24 21 20 31 32 31 33 32 32 32 31 32 31 31
12 4 6 3 6 4 6 28 31 13 15 22 10 8 7 26 19 28 29 21 29 33 32 31 26 25 30 34 34 28 30 30 24 19 24 27 23 26 26 30 30 31 33 33 32 31 28 23 25
7 3 5 1 5 3 8 31 26 15 22 24 22 17 7 27 31 35 28 22 25 31 33 33 28 27 27 30 31 31 31 31 25 20 22 22 29 23 20 27 26 27 29 30 29 28 26 23 21
2 5 6 7 8 5 11 27 29 25 22 12 43 10 22 49 37 39 31 23 28 31 32 33 30 29 28 24 25 28 30 28 25 21 21 19 24 24 20 26 24 25 25 25 26 26 25 22 20
9 5 3 2 3 6 7 10 25 31 7 40 26 14 22 58 47 40 33 26 29 33 33 32 30 26 26 28 26 26 26 24 24 24 23 19 20 13 14 23 23 21 21 22 23 24 24 22 18
10 4 6 6 5 11 3 7 10 15 32 15 17 25 28 62 52 46 40 35 31 34 35 35 31 29 26 24 26 25 24 24 24 22 20 17 16 17 19 24 23 21 19 20 20 20 19 17 16
5 5 9 13 11 4 16 3 18 11 18 9 17 21 56 68 60 56 52 47 41 38 38 35 35 32 31 27 27 27 25 24 23 22 20 21 20 18 20 23 22 20 17 17 17 15 13 11 11
7 8 7 9 15 7 12 4 7 26 4 21 36 44 71 71 67 58 51 46 43 37 37 36 34 34 33 32 29 27 25 24 23 22 22 21 20 21 21 21 20 18 16 14 13 11 11 10 9
9 15 13 8 11 4 7 6 5 21 6 18 31 41 65 72 71 66 58 52 47 46 43 40 39 35 33 33 31 28 26 25 22 20 19 20 21 20 20 21 20 18 15 12 10 9 9 8 7
17 12 19 38 21 17 10 14 12 20 10 18 38 50 58 66 67 64 59 52 49 48 46 46 43 41 38 37 35 32 29 25 23 21 19 18 17 17 18 18 18 16 15 14 13 11 10 9 10
18 21 28 40 29 15 10 12 7 16 24 23 46 53 57 58 59 65 65 63 59 51 49 47 46 42 42 39 38 34 33 29 28 25 22 19 18 17 17 17 17 17 16 15 14 14 13 13 13
28 14 27 22 24 9 5 12 13 28 25 42 49 52 56 61 65 66 62 68 66 60 53 53 49 43 44 41 40 39 35 33 30 28 27 25 23 22 22 20 20 19 18 18 18 18 18 18 18
17 3 22 10 15 10 19 14 26 37 29 46 55 58 59 59 61 67 70 65 65 62 64 60 57 53 48 48 45 42 40 37 33 32 32 31 28 27 25 24 22 22 23 22 22 22 21 20 20
14 15 30 9 28 9 13 12 23 38 43 43 55 57 58 57 59 59 70 71 68 64 63 64 66 64 58 52 50 46 43 44 41 38 36 34 33 33 30 29 27 27 27 28 25 23 23 22 21
22 34 15 22 12 12 13 25 15 12 42 60 54 57 61 62 63 57 61 67 72 70 66 64 63 68 66 61 56 54 51 51 50 48 44 42 41 38 37 36 35 34 31 29 28 27 25 24 24
23 20 16 12 15 16 24 27 26 42 21 31 44 65 69 71 55 54 56 60 65 69 69 68 66 66 69 72 70 67 64 59 57 55 50 48 47 46 45 44 42 41 39 35 29 31 30 31 33
30 27 22 6 11 16 14 32 19 27 41 47 54 49 71 72 71 65 61 64 67 66 66 65 67 68 70 73 72 72 67 65 60 57 57 55 53 51 52 50 48 46 45 43 40 42 37 34 25
24 37 27 19 10 6 1 18 12 18 54 61 67 68 65 74 69 64 72 73 70 74 71 67 66 67 68 69 70 75 74 72 70 68 64 61 59 55 55 53 51 50 50 49 47 47 41 37 33
42 31 29 20 16 9 5 11 10 15 32 30 67 76 82 80 75 69 65 77 78 73 68 70 67 67 65 67 70 74 79 80 75 73 67 64 62 60 58 56 55 53 55 53 49 50 45 44 39
31 22 12 13 13 12 11 7 13 8 15 19 46 71 88 84 84 80 71 64 80 72 68 67 69 68 67 70 70 70 75 77 76 75 72 70 66 64 62 62 60 59 60 58 51 55 53 51 51
17 18 11 7 6 11 21 23 10 11 16 13 27 57 71 86 79 73 68 65 72 79 78 72 69 68 69 71 71 71 71 73 76 74 74 73 66 65 67 66 64 61 63 64 58 54 57 56 58
27 30 6 6 7 12 12 17 27 14 17 15 24 43 41 49 66 75 70 66 66 68 86 80 77 74 68 70 72 72 73 75 75 72 73 74 69 68 69 68 67 68 67 65 66 64 62 61 61
53 40 15 25 15 8 11 19 13 33 59 36 14 15 24 28 37 50 58 59 66 67 69 74 81 78 74 69 70 73 76 78 76 74 73 71 71 69 66 65 66 67 70 70 71 74 72 66 66
37 38 13 14 4 7 10 12 20 18 19 33 36 27 28 25 29 30 32 35 48 60 58 65 73 76 76 74 72 74 75 80 81 76 74 74 72 71 68 66 64 65 68 73 74 76 78 79 74
37 35 15 3 13 11 9 12 16 20 25 19 23 42 38 27 27 30 38 37 37 39 49 58 61 65 68 71 72 72 72 74 75 76 78 78 75 72 68 67 66 62 60 61 65 73 78 81 85
11 28 10 12 10 11 5 15 17 25 34 33 23 42 40 39 34 28 29 34 34 33 36 43 52 56 59 62 66 69 69 71 74 77 80 80 76 73 68 65 61 58 60 63 63 67 70 74 76
12 34 12 22 13 5 3 12 1 20 22 38 38 43 40 32 29 27 25 27 29 31 34 37 41 46 50 55 59 62 65 67 71 74 77 75 73 67 62 62 66 60 64 65 68 69 66 64 63
Wind_Direction_850mb
322 322 325 337 44 59 289 302 155 107 64 68 85 98 117 85 59 173 141 166 187 184 167 158 152 152 147 139 135 132 128 127 121 118 117 113 97 88 96 100 92 91 93 95 96 98 93 84 83
327 325 332 37 82 56 262 245 136 158 128 109 87 87 54 84 110 139 151 176 192 178 171 167 161 159 152 144 142 138 135 130 126 127 130 115 103 100 106 104 97 95 95 97 97 98 94 93 97
322 323 339 85 113 176 177 181 150 125 127 108 103 72 78 111 125 145 167 168 183 173 167 165 163 160 160 152 141 140 139 135 124 127 130 121 105 99 109 102 98 95 96 99 102 103 101 93 90
335 335 32 82 253 237 171 187 149 134 100 90 113 77 99 125 147 174 161 169 173 164 159 157 155 156 164 166 162 154 147 146 134 119 137 131 115 118 112 103 99 100 103 106 106 107 102 93 88
326 10 50 18 289 349 82 167 152 130 109 130 119 127 97 163 179 173 158 166 173 156 152 151 147 146 156 167 177 177 151 156 150 136 134 136 128 119 122 111 107 106 105 105 107 107 105 100 89
319 55 75 227 278 85 163 169 142 128 127 128 109 106 136 170 179 174 170 170 173 159 153 150 148 146 145 153 164 159 153 156 161 155 147 149 124 132 124 116 110 104 100 102 107 112 115 112 100
348 79 198 167 253 194 196 164 149 143 138 148 142 95 153 166 179 172 174 171 175 168 160 155 154 153 146 146 146 149 152 160 163 164 161 154 136 140 133 128 117 109 109 113 116 120 119 113 98
302 106 218 46 357 256 161 122 159 135 97 142 144 153 180 172 174 174 178 176 177 176 170 163 158 159 155 153 153 152 152 154 157 167 171 159 155 161 129 136 127 125 124 125 126 128 128 124 115
279 67 190 164 59 280 274 124 138 138 138 160 183 171 185 169 177 180 182 182 182 184 180 174 167 163 161 159 155 155 153 153 154 160 165 166 166 168 154 147 144 141 138 137 139 140 140 134 127
269 153 237 178 155 244 311 153 142 136 131 111 150 169 163 170 185 187 188 188 187 190 185 185 178 173 169 169 167 164 163 162 163 165 166 166 165 161 161 158 153 151 147 147 149 147 147 146 136
285 213 283 231 199 327 311 177 156 149 201 193 172 160 169 177 185 195 196 197 192 188 191 190 190 185 181 178 176 174 174 173 172 170 170 168 165 163 162 169 166 165 163 160 157 160 165 164 158
280 272 269 258 220 238 313 317 183 183 206 214 195 185 176 184 191 197 203 200 196 197 196 196 196 198 194 193 190 187 184 182 181 178 176 176 173 171 173 175 178 178 178 175 173 175 179 183 181
270 273 276 266 248 236 275 270 232 227 192 194 187 180 185 191 197 201 208 208 205 205 201 204 204 206 203 201 201 198 195 194 193 191 189 187 179 180 182 185 189 191 194 194 197 198 200 205 209
224 257 253 253 256 244 191 252 211 241 202 180 183 188 192 197 203 204 205 209 211 214 213 210 211 209 210 208 212 212 207 202 204 203 202 201 196 198 200 199 199 203 207 209 213 218 216 215 217
217 319 275 235 235 242 231 278 230 219 202 191 194 199 201 205 206 212 212 212 213 215 219 217 217 218 216 216 219 218 222 214 216 211 213 212 214 212 210 216 215 214 217 220 223 225 228 225 223
141 123 266 241 186 227 161 258 237 222 203 200 200 206 208 210 216 217 218 219 219 217 216 221 223 223 225 223 221 224 226 228 225 221 222 223 224 228 228 229 231 232 233 232 231 234 238 237 237
152 210 223 239 203 156 180 263 246 232 208 207 207 209 215 218 220 222 223 222 224 224 219 220 225 227 227 228 228 228 229 233 233 230 229 233 235 237 241 242 242 245 246 246 241 243 250 245 256
167 200 213 204 210 207 206 242 276 269 217 222 214 216 218 223 226 226 224 224 226 229 229 226 227 229 232 232 231 233 232 232 234 235 235 235 238 242 245 247 248 250 255 257 245 254 260 254 255
166 179 183 207 200 177 224 242 232 252 239 238 235 229 225 227 230 230 229 226 226 227 229 226 226 231 231 232 231 230 233 233 233 236 238 239 240 242 245 248 248 250 257 261 263 258 252 252 252
183 175 212 244 213 181 229 246 237 244 256 255 249 242 229 232 232 230 230 227 225 226 227 229 232 233 234 235 237 239 240 239 242 242 242 242 243 244 246 248 249 251 253 252 249 249 248 254 238
200 188 188 200 161 183 121 273 225 236 246 249 249 247 236 230 230 229 229 229 228 226 227 230 233 235 235 237 239 239 242 244 243 242 242 243 245 245 246 249 251 253 252 252 251 246 247 245 242
214 204 197 186 160 200 179 276 256 227 239 233 236 238 237 232 232 236 234 230 228 231 234 235 237 239 239 238 242 243 243 245 247 249 249 248 247 250 252 252 251 252 252 250 249 242 248 244 242
213 145 159 180 180 133 177 264 268 213 257 236 235 236 239 236 233 234 234 236 232 233 235 238 240 242 244 243 244 245 245 249 253 253 255 255 254 254 255 255 253 252 252 250 248 243 244 243 246
148 111 71 95 66 249 174 200 252 210 210 242 239 243 240 238 236 235 238 240 234 233 235 237 239 243 245 245 245 247 247 249 251 253 253 255 256 255 255 255 255 254 254 251 250 248 244 245 248
173 163 186 146 187 230 170 191 234 237 244 228 250 241 238 237 236 233 232 233 232 233 236 238 239 242 246 247 248 249 251 251 254 255 254 256 257 256 256 255 254 255 255 255 252 250 248 247 248
187 185 171 194 192 200 123 223 244 218 244 234 232 212 196 208 220 229 237 240 238 238 234 238 241 243 246 249 252 253 253 254 256 256 255 257 259 261 264 263 262 261 260 260 259 255 252 249 249
194 208 175 98 41 87 212 279 306 233 247 225 223 196 201 198 206 207 219 231 234 232 235 241 243 244 247 251 251 253 254 255 256 258 260 262 264 266 268 269 267 265 264 261 260 259 257 252 248
185 177 177 19 144 215 247 281 228 204 201 205 205 205 208 209 213 219 222 225 226 229 234 238 241 244 248 251 251 254 256 259 262 265 265 267 269 270 272 272 272 269 266 265 261 261 260 258 252
151 187 201 126 165 167 177 249 208 204 196 196 193 198 199 202 205 212 213 216 223 230 234 234 237 240 243 246 247 249 252 256 259 262 266 269 272 274 273 274 276 271 267 266 265 265 267 270 268
182 182 186 198 212 214 209 272 229 249 168 164 185 185 181 191 203 200 198 204 216 225 230 233 236 240 245 247 248 250 251 251 253 255 260 263 266 269 272 270 265 265 268 266 267 266 265 273 275